Location: Columbia
(38.9520°N, 92.3340°W)
Time: 06:26:57
(UTC-06:00)

Iridium 15 - Visible Passes

Search period start: 26 January 2015 00:00
Search period end: 05 February 2015 00:00
Orbit: 776 x 779 km, 86.4° (Epoch: 25 January)

Date Brightness Start Highest point End Pass type
(mag) Time Alt. Az. Time Alt. Az. Time Alt. Az.
26 Jan 6.9 04:48:34 10° N 04:53:35 47° E 04:58:36 10° SSE visible
26 Jan 7.3 06:30:24 10° NW 06:33:59 18° W 06:37:21 10° WSW visible
26 Jan 6.3 17:43:46 10° S 17:48:58 79° W 17:54:13 10° N visible
27 Jan 8.0 04:15:35 10° NNE 04:19:50 26° ENE 04:24:11 10° SE visible
27 Jan 6.6 05:55:59 10° NNW 06:00:39 33° W 06:05:15 10° SSW visible
27 Jan 8.9 18:53:29 10° WSW 18:56:42 16° WNW 18:59:43 10° NW visible
28 Jan 8.8 03:43:25 10° NE 03:45:55 14° ENE 03:48:43 10° ESE visible
28 Jan 5.9 05:22:05 10° N 05:27:15 63° W 05:32:23 10° S visible
28 Jan 8.1 18:18:18 10° SW 18:22:50 29° W 18:27:18 10° NNW visible
29 Jan 6.2 04:48:32 10° N 04:53:44 70° E 04:58:56 10° S visible
29 Jan 7.7 06:31:43 10° NW 06:33:55 12° W 06:35:49 10° W visible
30 Jan 7.3 04:20:11 37° E 04:20:11 37° E 04:24:55 10° SSE visible
30 Jan 7.0 06:00:49 23° W 06:00:49 23° W 06:04:36 10° SW visible
30 Jan 9.3 18:55:57 10° W 18:57:07 10° WNW 18:57:55 10° WNW visible
31 Jan 8.6 03:48:49 15° ESE 03:48:49 15° ESE 03:50:10 10° SE visible
31 Jan 7.0 05:29:25 28° SW 05:29:25 28° SW 05:32:09 10° SSW visible
31 Jan 8.7 18:19:15 10° SW 18:23:07 20° WNW 18:26:51 10° NNW visible
01 Feb 7.9 04:57:42 19° S 04:57:42 19° S 04:59:03 10° S visible
03 Feb 8.9 18:20:44 10° WSW 18:23:29 14° WNW 18:25:58 10° NW visible
